Time,TemperatureF,DewpointF,PressureIn,WindDirection,WindDirectionDegrees,WindSpeedMPH,WindSpeedGustMPH,Humidity,HourlyPrecipIn,Conditions,Clouds,dailyrainin,SoftwareType,DateUTC
2013-05-20 00:03:00,72.0,67.0,29.90,ESE,120,0.0,0.0,84,0.00,,,0.00,,2013-05-20 04:03:00,
2013-05-20 00:13:00,72.0,67.0,29.90,ESE,120,0.0,0.0,84,0.00,,,0.00,,2013-05-20 04:13:00,
2013-05-20 00:23:00,72.0,67.0,29.91,SE,130,0.0,0.0,85,0.00,,,0.00,,2013-05-20 04:23:00,
2013-05-20 00:33:00,72.0,68.0,29.91,SE,146,0.0,0.0,87,0.00,,,0.00,,2013-05-20 04:33:00,
2013-05-20 00:42:00,72.0,68.0,29.91,SE,146,0.0,0.0,87,0.00,,,0.00,,2013-05-20 04:42:00,
2013-05-20 00:52:00,71.0,67.0,29.91,SSE,158,0.0,1.0,88,0.00,,,0.00,,2013-05-20 04:52:00,
2013-05-20 01:02:00,71.0,68.0,29.91,SE,141,0.0,1.0,89,0.00,,,0.00,,2013-05-20 05:02:00,
2013-05-20 01:12:00,71.0,68.0,29.91,SE,141,0.0,1.0,89,0.00,,,0.00,,2013-05-20 05:12:00,
2013-05-20 01:22:00,71.0,68.0,29.91,SE,129,0.0,2.0,91,0.00,,,0.00,,2013-05-20 05:22:00,
2013-05-20 01:32:00,71.0,69.0,29.91,SE,130,0.0,1.0,92,0.00,,,0.00,,2013-05-20 05:32:00,
2013-05-20 01:42:00,71.0,69.0,29.91,SE,130,0.0,1.0,92,0.00,,,0.00,,2013-05-20 05:42:00,
2013-05-20 01:52:00,70.0,68.0,29.91,SE,130,0.0,1.0,93,0.00,,,0.00,,2013-05-20 05:52:00,
2013-05-20 02:01:00,70.0,68.0,29.90,SE,131,0.0,1.0,94,0.00,,,0.00,,2013-05-20 06:01:00,
2013-05-20 02:11:00,70.0,68.0,29.90,SE,131,0.0,1.0,94,0.00,,,0.00,,2013-05-20 06:11:00,
2013-05-20 02:21:00,70.0,68.0,29.91,ESE,119,0.0,1.0,94,0.00,,,0.00,,2013-05-20 06:21:00,
2013-05-20 02:32:00,70.0,68.0,29.90,ESE,118,0.0,1.0,95,0.00,,,0.00,,2013-05-20 06:32:00,
2013-05-20 02:42:00,70.0,68.0,29.90,ESE,118,0.0,1.0,95,0.00,,,0.00,,2013-05-20 06:42:00,
2013-05-20 02:52:00,69.0,68.0,29.90,ESE,121,1.0,1.0,96,0.00,,,0.00,,2013-05-20 06:52:00,
2013-05-20 03:02:00,69.0,68.0,29.91,ESE,117,0.0,1.0,96,0.00,,,0.00,,2013-05-20 07:02:00,
2013-05-20 03:12:00,69.0,68.0,29.91,ESE,117,0.0,1.0,96,0.00,,,0.00,,2013-05-20 07:12:00,
2013-05-20 03:21:00,69.0,68.0,29.90,ESE,119,1.0,2.0,97,0.00,,,0.00,,2013-05-20 07:21:00,
2013-05-20 03:32:00,69.0,68.0,29.90,ESE,123,1.0,2.0,97,0.00,,,0.00,,2013-05-20 07:32:00,
2013-05-20 03:42:00,69.0,68.0,29.90,ESE,123,1.0,2.0,97,0.00,,,0.00,,2013-05-20 07:42:00,
2013-05-20 03:52:00,69.0,68.0,29.91,SE,125,1.0,1.0,97,0.00,,,0.00,,2013-05-20 07:52:00,
2013-05-20 04:01:00,69.0,68.0,29.90,ESE,122,0.0,1.0,97,0.00,,,0.00,,2013-05-20 08:01:00,
2013-05-20 04:11:00,69.0,68.0,29.90,ESE,122,0.0,1.0,97,0.00,,,0.00,,2013-05-20 08:11:00,
2013-05-20 04:21:00,69.0,68.0,29.90,SE,132,0.0,2.0,98,0.00,,,0.00,,2013-05-20 08:21:00,
2013-05-20 04:32:00,69.0,68.0,29.90,SE,133,1.0,1.0,98,0.00,,,0.00,,2013-05-20 08:32:00,
2013-05-20 04:42:00,69.0,68.0,29.90,SE,133,1.0,1.0,98,0.00,,,0.00,,2013-05-20 08:42:00,
2013-05-20 04:52:00,68.0,67.0,29.91,SE,145,0.0,2.0,98,0.00,,,0.00,,2013-05-20 08:52:00,
2013-05-20 05:02:00,68.0,67.0,29.91,SE,142,0.0,1.0,98,0.00,,,0.00,,2013-05-20 09:02:00,
2013-05-20 05:12:00,68.0,67.0,29.91,SE,142,0.0,1.0,98,0.00,,,0.00,,2013-05-20 09:12:00,
2013-05-20 05:22:00,68.0,67.0,29.91,SE,125,0.0,1.0,98,0.00,,,0.00,,2013-05-20 09:22:00,
2013-05-20 05:33:00,68.0,67.0,29.91,SE,126,0.0,1.0,98,0.00,,,0.00,,2013-05-20 09:33:00,
2013-05-20 05:43:00,68.0,67.0,29.91,SE,126,0.0,1.0,98,0.00,,,0.00,,2013-05-20 09:43:00,
2013-05-20 05:52:00,68.0,67.0,29.91,SE,134,0.0,1.0,98,0.00,,,0.00,,2013-05-20 09:52:00,
2013-05-20 06:03:00,67.0,66.0,29.92,SW,228,0.0,1.0,98,0.00,,,0.00,,2013-05-20 10:03:00,
2013-05-20 06:12:00,67.0,66.0,29.92,SW,228,0.0,1.0,98,0.00,,,0.00,,2013-05-20 10:12:00,
2013-05-20 06:22:00,67.0,66.0,29.92,SE,127,0.0,0.0,98,0.00,,,0.00,,2013-05-20 10:22:00,
2013-05-20 06:33:00,67.0,66.0,29.92,SE,134,0.0,0.0,98,0.00,,,0.00,,2013-05-20 10:33:00,
2013-05-20 06:42:00,67.0,66.0,29.92,SE,134,0.0,0.0,98,0.00,,,0.00,,2013-05-20 10:42:00,
2013-05-20 06:52:00,67.0,66.0,29.92,SE,128,0.0,0.0,98,0.00,,,0.00,,2013-05-20 10:52:00,
2013-05-20 07:02:00,67.0,66.0,29.92,ESE,123,0.0,0.0,98,0.00,,,0.00,,2013-05-20 11:02:00,
2013-05-20 07:12:00,67.0,66.0,29.92,ESE,123,0.0,0.0,98,0.00,,,0.00,,2013-05-20 11:12:00,
2013-05-20 07:22:00,67.0,66.0,29.93,SE,130,0.0,0.0,98,0.00,,,0.00,,2013-05-20 11:22:00,
2013-05-20 07:32:00,67.0,66.0,29.93,SE,133,0.0,0.0,98,0.00,,,0.00,,2013-05-20 11:32:00,
2013-05-20 07:42:00,67.0,66.0,29.93,SE,133,0.0,0.0,98,0.00,,,0.00,,2013-05-20 11:42:00,
2013-05-20 07:51:00,67.0,66.0,29.94,SE,136,0.0,0.0,98,0.00,,,0.00,,2013-05-20 11:51:00,
2013-05-20 08:01:00,67.0,66.0,29.95,SE,143,0.0,1.0,98,0.00,,,0.00,,2013-05-20 12:01:00,
2013-05-20 08:12:00,67.0,66.0,29.95,SE,143,0.0,1.0,98,0.00,,,0.00,,2013-05-20 12:12:00,
2013-05-20 08:21:00,67.0,66.0,29.95,SE,134,0.0,0.0,98,0.00,,,0.00,,2013-05-20 12:21:00,
2013-05-20 08:32:00,67.0,66.0,29.96,SSW,207,1.0,6.0,98,0.00,,,0.00,,2013-05-20 12:32:00,
2013-05-20 08:42:00,67.0,66.0,29.96,SSW,207,1.0,6.0,98,0.00,,,0.00,,2013-05-20 12:42:00,
2013-05-20 08:52:00,68.0,67.0,29.96,South,181,1.0,5.0,97,0.00,,,0.00,,2013-05-20 12:52:00,
2013-05-20 09:01:00,69.0,68.0,29.96,SSE,160,0.0,4.0,96,0.00,,,0.00,,2013-05-20 13:01:00,
2013-05-20 09:11:00,69.0,68.0,29.96,SSE,160,0.0,4.0,96,0.00,,,0.00,,2013-05-20 13:11:00,
2013-05-20 09:22:00,70.0,68.0,29.96,SSE,150,1.0,2.0,94,0.00,,,0.00,,2013-05-20 13:22:00,
2013-05-20 09:32:00,71.0,68.0,29.97,SSE,158,0.0,5.0,91,0.00,,,0.00,,2013-05-20 13:32:00,
2013-05-20 09:41:00,71.0,68.0,29.97,SSE,158,0.0,5.0,91,0.00,,,0.00,,2013-05-20 13:41:00,
2013-05-20 09:52:00,72.0,69.0,29.97,SSW,204,1.0,4.0,90,0.00,,,0.00,,2013-05-20 13:52:00,
2013-05-20 10:01:00,73.0,69.0,29.98,SE,145,1.0,4.0,88,0.00,,,0.00,,2013-05-20 14:01:00,
2013-05-20 10:11:00,73.0,69.0,29.98,SE,145,1.0,4.0,88,0.00,,,0.00,,2013-05-20 14:11:00,
2013-05-20 10:22:00,72.0,69.0,29.98,SSW,208,0.0,4.0,89,0.00,,,0.00,,2013-05-20 14:22:00,
2013-05-20 10:32:00,73.0,69.0,29.98,SW,222,1.0,4.0,88,0.00,,,0.00,,2013-05-20 14:32:00,
2013-05-20 10:42:00,73.0,69.0,29.98,SW,222,1.0,4.0,88,0.00,,,0.00,,2013-05-20 14:42:00,
2013-05-20 10:52:00,74.0,70.0,29.98,SSW,200,0.0,5.0,87,0.00,,,0.00,,2013-05-20 14:52:00,
2013-05-20 11:01:00,75.0,70.0,29.98,SSW,207,0.0,3.0,85,0.00,,,0.00,,2013-05-20 15:01:00,
2013-05-20 11:12:00,75.0,70.0,29.98,SSW,207,0.0,3.0,85,0.00,,,0.00,,2013-05-20 15:12:00,
2013-05-20 11:22:00,76.0,70.0,29.97,SW,226,2.0,6.0,82,0.00,,,0.00,,2013-05-20 15:22:00,
2013-05-20 11:33:00,76.0,70.0,29.97,SSE,148,0.0,7.0,83,0.00,,,0.00,,2013-05-20 15:33:00,
2013-05-20 11:42:00,76.0,70.0,29.97,SSE,148,0.0,7.0,83,0.00,,,0.00,,2013-05-20 15:42:00,
2013-05-20 11:53:00,77.0,71.0,29.96,SE,134,1.0,2.0,82,0.00,,,0.00,,2013-05-20 15:53:00,
2013-05-20 12:03:00,78.0,72.0,29.97,SE,129,0.0,2.0,81,0.00,,,0.00,,2013-05-20 16:03:00,
2013-05-20 12:13:00,78.0,72.0,29.97,SE,129,0.0,2.0,81,0.00,,,0.00,,2013-05-20 16:13:00,
2013-05-20 12:23:00,77.0,71.0,29.96,SSE,163,0.0,5.0,83,0.00,,,0.00,,2013-05-20 16:23:00,
2013-05-20 12:33:00,78.0,72.0,29.96,SE,140,1.0,6.0,83,0.00,,,0.00,,2013-05-20 16:33:00,
2013-05-20 12:42:00,78.0,72.0,29.96,SE,140,1.0,6.0,83,0.00,,,0.00,,2013-05-20 16:42:00,
2013-05-20 12:52:00,80.0,72.0,29.96,SW,227,1.0,6.0,77,0.00,,,0.00,,2013-05-20 16:52:00,
2013-05-20 13:03:00,80.0,73.0,29.96,West,279,1.0,4.0,79,0.00,,,0.00,,2013-05-20 17:03:00,
2013-05-20 13:12:00,80.0,73.0,29.96,West,279,1.0,4.0,79,0.00,,,0.00,,2013-05-20 17:12:00,
2013-05-20 13:22:00,80.0,72.0,29.95,SSE,155,2.0,8.0,77,0.00,,,0.00,,2013-05-20 17:22:00,
2013-05-20 13:33:00,80.0,72.0,29.95,SSW,210,0.0,2.0,77,0.00,,,0.00,,2013-05-20 17:33:00,
2013-05-20 13:45:00,80.0,72.0,29.95,SSW,210,0.0,2.0,77,0.00,,,0.00,,2013-05-20 17:45:00,
2013-05-20 13:53:00,81.0,73.0,29.95,ESE,117,2.0,6.0,76,0.00,,,0.00,,2013-05-20 17:53:00,
2013-05-20 14:02:00,81.0,73.0,29.95,South,191,0.0,6.0,76,0.00,,,0.00,,2013-05-20 18:02:00,
2013-05-20 14:12:00,81.0,73.0,29.95,South,191,0.0,6.0,76,0.00,,,0.00,,2013-05-20 18:12:00,
2013-05-20 14:23:00,82.0,72.0,29.94,SSE,167,2.0,9.0,73,0.00,,,0.00,,2013-05-20 18:23:00,
2013-05-20 14:33:00,82.0,73.0,29.94,SSW,213,3.0,10.0,74,0.00,,,0.00,,2013-05-20 18:33:00,
2013-05-20 14:42:00,82.0,73.0,29.94,SSW,213,3.0,10.0,74,0.00,,,0.00,,2013-05-20 18:42:00,
2013-05-20 14:55:00,83.0,73.0,29.93,WSW,238,2.0,6.0,72,0.00,,,0.00,,2013-05-20 18:55:00,
2013-05-20 15:04:00,82.0,72.0,29.93,SSE,151,3.0,7.0,72,0.00,,,0.00,,2013-05-20 19:04:00,
2013-05-20 15:11:00,82.0,72.0,29.93,SSE,151,3.0,7.0,72,0.00,,,0.00,,2013-05-20 19:11:00,
2013-05-20 15:21:00,83.0,73.0,29.92,ESE,117,1.0,3.0,71,0.00,,,0.00,,2013-05-20 19:21:00,
2013-05-20 15:33:00,83.0,72.0,29.92,SSW,198,1.0,3.0,70,0.00,,,0.00,,2013-05-20 19:33:00,
2013-05-20 15:42:00,83.0,72.0,29.92,SSW,198,1.0,3.0,70,0.00,,,0.00,,2013-05-20 19:42:00,
2013-05-20 15:52:00,83.0,72.0,29.91,South,181,1.0,7.0,69,0.00,,,0.00,,2013-05-20 19:52:00,
2013-05-20 16:01:00,84.0,73.0,29.91,SW,224,2.0,6.0,69,0.00,,,0.00,,2013-05-20 20:01:00,
2013-05-20 16:12:00,84.0,73.0,29.91,SW,224,2.0,6.0,69,0.00,,,0.00,,2013-05-20 20:12:00,
2013-05-20 16:21:00,84.0,72.0,29.91,SE,139,1.0,4.0,68,0.00,,,0.00,,2013-05-20 20:21:00,
2013-05-20 16:32:00,83.0,72.0,29.90,South,181,2.0,6.0,69,0.00,,,0.00,,2013-05-20 20:32:00,
2013-05-20 16:42:00,83.0,72.0,29.90,South,181,2.0,6.0,69,0.00,,,0.00,,2013-05-20 20:42:00,
2013-05-20 16:52:00,83.0,72.0,29.90,SE,127,3.0,9.0,70,0.00,,,0.00,,2013-05-20 20:52:00,
2013-05-20 17:01:00,83.0,71.0,29.89,SE,146,2.0,8.0,68,0.00,,,0.00,,2013-05-20 21:01:00,
2013-05-20 17:11:00,83.0,71.0,29.89,SE,146,2.0,8.0,68,0.00,,,0.00,,2013-05-20 21:11:00,
2013-05-20 17:22:00,84.0,72.0,29.88,South,187,1.0,3.0,68,0.00,,,0.00,,2013-05-20 21:22:00,
2013-05-20 17:33:00,84.0,72.0,29.88,SSE,160,1.0,3.0,67,0.00,,,0.00,,2013-05-20 21:33:00,
2013-05-20 17:43:00,84.0,71.0,29.88,SE,136,1.0,4.0,65,0.00,,,0.00,,2013-05-20 21:43:00,
2013-05-20 17:53:00,84.0,71.0,29.88,SE,136,1.0,4.0,65,0.00,,,0.00,,2013-05-20 21:53:00,
2013-05-20 18:02:00,84.0,72.0,29.88,ESE,113,2.0,9.0,67,0.00,,,0.00,,2013-05-20 22:02:00,
2013-05-20 18:13:00,84.0,72.0,29.88,ESE,113,2.0,9.0,67,0.00,,,0.00,,2013-05-20 22:13:00,
2013-05-20 18:23:00,83.0,71.0,29.88,South,173,1.0,10.0,67,0.00,,,0.00,,2013-05-20 22:23:00,
2013-05-20 18:33:00,82.0,71.0,29.88,SE,146,2.0,6.0,69,0.00,,,0.00,,2013-05-20 22:33:00,
2013-05-20 18:42:00,82.0,71.0,29.88,SE,146,2.0,6.0,69,0.00,,,0.00,,2013-05-20 22:42:00,
2013-05-20 18:52:00,82.0,72.0,29.87,South,186,3.0,10.0,71,0.00,,,0.00,,2013-05-20 22:52:00,
2013-05-20 19:03:00,82.0,71.0,29.87,SSW,200,3.0,10.0,70,0.00,,,0.00,,2013-05-20 23:03:00,
2013-05-20 19:12:00,82.0,71.0,29.87,SSW,200,3.0,10.0,70,0.00,,,0.00,,2013-05-20 23:12:00,
2013-05-20 19:22:00,82.0,72.0,29.87,SW,224,0.0,2.0,73,0.00,,,0.00,,2013-05-20 23:22:00,
2013-05-20 19:32:00,81.0,71.0,29.87,SW,215,0.0,5.0,72,0.00,,,0.00,,2013-05-20 23:32:00,
2013-05-20 19:42:00,81.0,71.0,29.87,SW,215,0.0,5.0,72,0.00,,,0.00,,2013-05-20 23:42:00,
2013-05-20 19:52:00,81.0,69.0,29.87,SSW,200,3.0,7.0,68,0.00,,,0.00,,2013-05-20 23:52:00,
2013-05-20 20:01:00,80.0,70.0,29.87,South,174,0.0,5.0,71,0.00,,,0.00,,2013-05-21 00:01:00,
2013-05-20 20:11:00,80.0,70.0,29.87,South,174,0.0,5.0,71,0.00,,,0.00,,2013-05-21 00:11:00,
2013-05-20 20:22:00,80.0,70.0,29.88,South,174,0.0,2.0,71,0.00,,,0.00,,2013-05-21 00:22:00,
2013-05-20 20:32:00,79.0,69.0,29.88,SSE,156,0.0,2.0,71,0.00,,,0.00,,2013-05-21 00:32:00,
2013-05-20 20:42:00,79.0,69.0,29.88,SSE,156,0.0,2.0,71,0.00,,,0.00,,2013-05-21 00:42:00,
2013-05-20 20:52:00,79.0,69.0,29.88,SSE,156,0.0,2.0,71,0.00,,,0.00,,2013-05-21 00:52:00,
2013-05-20 21:01:00,78.0,69.0,29.87,SSE,153,0.0,2.0,73,0.00,,,0.00,,2013-05-21 01:01:00,
2013-05-20 21:11:00,78.0,69.0,29.87,SSE,153,0.0,2.0,73,0.00,,,0.00,,2013-05-21 01:11:00,
2013-05-20 21:22:00,78.0,69.0,29.87,SSW,201,0.0,2.0,74,0.00,,,0.00,,2013-05-21 01:22:00,
2013-05-20 21:32:00,78.0,69.0,29.87,SE,141,0.0,2.0,75,0.00,,,0.00,,2013-05-21 01:32:00,
2013-05-20 21:42:00,78.0,69.0,29.87,SE,141,0.0,2.0,75,0.00,,,0.00,,2013-05-21 01:42:00,
2013-05-20 21:52:00,77.0,68.0,29.87,SE,135,1.0,1.0,75,0.00,,,0.00,,2013-05-21 01:52:00,
2013-05-20 22:02:00,77.0,69.0,29.86,SSW,210,1.0,2.0,76,0.00,,,0.00,,2013-05-21 02:02:00,
2013-05-20 22:11:00,77.0,69.0,29.86,SSW,210,1.0,2.0,76,0.00,,,0.00,,2013-05-21 02:11:00,
2013-05-20 22:21:00,77.0,69.0,29.87,SE,130,1.0,1.0,77,0.00,,,0.00,,2013-05-21 02:21:00,
2013-05-20 22:32:00,76.0,69.0,29.87,SE,136,1.0,2.0,78,0.00,,,0.00,,2013-05-21 02:32:00,
2013-05-20 22:42:00,76.0,69.0,29.87,SE,136,1.0,2.0,78,0.00,,,0.00,,2013-05-21 02:42:00,
2013-05-20 22:52:00,76.0,69.0,29.86,SE,134,1.0,2.0,80,0.00,,,0.00,,2013-05-21 02:52:00,
2013-05-20 23:02:00,75.0,69.0,29.86,SE,133,1.0,2.0,81,0.00,,,0.00,,2013-05-21 03:02:00,
2013-05-20 23:11:00,75.0,69.0,29.86,SE,133,1.0,2.0,81,0.00,,,0.00,,2013-05-21 03:11:00,
2013-05-20 23:21:00,75.0,69.0,29.86,ESE,122,1.0,2.0,82,0.00,,,0.00,,2013-05-21 03:21:00,
2013-05-20 23:33:00,74.0,69.0,29.86,SE,135,1.0,2.0,84,0.00,,,0.00,,2013-05-21 03:33:00,
2013-05-20 23:43:00,74.0,69.0,29.86,SE,139,1.0,2.0,85,0.00,,,0.00,,2013-05-21 03:43:00,
2013-05-20 23:53:00,74.0,69.0,29.86,SE,139,1.0,2.0,85,0.00,,,0.00,,2013-05-21 03:53:00,